Time,TemperatureF,DewpointF,PressureIn,WindDirection,WindDirectionDegrees,WindSpeedMPH,WindSpeedGustMPH,Humidity,HourlyPrecipIn,Conditions,Clouds,dailyrainin,SoftwareType,DateUTC
2013-04-14 00:03:00,51.0,-99.9,-100.00,ESE,112,10.0,-999.0,-999,0.00,,,0.00,,2013-04-14 05:03:00,
2013-04-14 00:12:00,51.0,-99.9,-100.00,ESE,112,10.0,-999.0,-999,0.00,,,0.00,,2013-04-14 05:12:00,
2013-04-14 00:23:00,51.0,-99.9,-100.00,ESE,112,10.0,-999.0,-999,0.00,,,0.00,,2013-04-14 05:23:00,
2013-04-14 00:32:00,52.0,-99.9,-100.00,ESE,121,11.0,-999.0,-999,0.00,,,0.00,,2013-04-14 05:32:00,
2013-04-14 00:43:00,52.0,-99.9,-100.00,ESE,121,11.0,-999.0,-999,0.00,,,0.00,,2013-04-14 05:43:00,
2013-04-14 00:53:00,52.0,-99.9,-100.00,ESE,121,11.0,-999.0,-999,0.00,,,0.00,,2013-04-14 05:53:00,
2013-04-14 01:02:00,52.0,-99.9,-100.00,SE,124,11.0,-999.0,-999,0.00,,,0.00,,2013-04-14 06:02:00,
2013-04-14 01:12:00,52.0,-99.9,-100.00,SE,124,11.0,-999.0,-999,0.00,,,0.00,,2013-04-14 06:12:00,
2013-04-14 01:22:00,52.0,-99.9,-100.00,SE,124,11.0,-999.0,-999,0.00,,,0.00,,2013-04-14 06:22:00,
2013-04-14 01:32:00,52.0,-99.9,-100.00,SE,134,9.0,-999.0,-999,0.00,,,0.00,,2013-04-14 06:32:00,
2013-04-14 01:42:00,52.0,-99.9,-100.00,SE,134,9.0,-999.0,-999,0.00,,,0.00,,2013-04-14 06:42:00,
2013-04-14 01:53:00,52.0,-99.9,-100.00,SE,134,9.0,-999.0,-999,0.00,,,0.00,,2013-04-14 06:53:00,
2013-04-14 02:03:00,52.0,-99.9,-100.00,SE,127,9.0,-999.0,-999,0.00,,,0.00,,2013-04-14 07:03:00,
2013-04-14 02:12:00,52.0,-99.9,-100.00,SE,127,9.0,-999.0,-999,0.00,,,0.00,,2013-04-14 07:12:00,
2013-04-14 02:23:00,52.0,-99.9,-100.00,SE,127,9.0,-999.0,-999,0.00,,,0.00,,2013-04-14 07:23:00,
2013-04-14 02:33:00,51.0,-99.9,-100.00,SE,140,10.0,-999.0,-999,0.00,,,0.00,,2013-04-14 07:33:00,
2013-04-14 02:42:00,51.0,-99.9,-100.00,SE,140,10.0,-999.0,-999,0.00,,,0.00,,2013-04-14 07:42:00,
2013-04-14 02:53:00,51.0,-99.9,-100.00,SE,140,10.0,-999.0,-999,0.00,,,0.00,,2013-04-14 07:53:00,
2013-04-14 03:03:00,50.0,-99.9,-100.00,SE,139,11.0,-999.0,-999,0.00,,,0.00,,2013-04-14 08:03:00,
2013-04-14 03:13:00,50.0,-99.9,-100.00,SE,139,11.0,-999.0,-999,0.00,,,0.00,,2013-04-14 08:13:00,
2013-04-14 03:23:00,50.0,-99.9,-100.00,SE,139,11.0,-999.0,-999,0.00,,,0.00,,2013-04-14 08:23:00,
2013-04-14 03:33:00,51.0,-99.9,-100.00,SE,137,8.0,-999.0,-999,0.00,,,0.00,,2013-04-14 08:33:00,
2013-04-14 03:43:00,51.0,-99.9,-100.00,SE,137,8.0,-999.0,-999,0.00,,,0.00,,2013-04-14 08:43:00,
2013-04-14 03:53:00,51.0,-99.9,-100.00,SE,137,8.0,-999.0,-999,0.00,,,0.00,,2013-04-14 08:53:00,
2013-04-14 04:03:00,51.0,-99.9,-100.00,SE,143,7.0,-999.0,-999,0.00,,,0.00,,2013-04-14 09:03:00,
2013-04-14 04:12:00,51.0,-99.9,-100.00,SE,143,7.0,-999.0,-999,0.00,,,0.00,,2013-04-14 09:12:00,
2013-04-14 04:23:00,51.0,-99.9,-100.00,SE,143,7.0,-999.0,-999,0.00,,,0.00,,2013-04-14 09:23:00,
2013-04-14 04:33:00,51.0,-99.9,-100.00,SSE,148,7.0,-999.0,-999,0.00,,,0.00,,2013-04-14 09:33:00,
2013-04-14 04:43:00,51.0,-99.9,-100.00,SSE,148,7.0,-999.0,-999,0.00,,,0.00,,2013-04-14 09:43:00,
2013-04-14 04:54:00,51.0,-99.9,-100.00,SSE,148,7.0,-999.0,-999,0.00,,,0.00,,2013-04-14 09:54:00,
2013-04-14 05:03:00,51.0,-99.9,-100.00,SE,146,7.0,-999.0,-999,0.00,,,0.00,,2013-04-14 10:03:00,
2013-04-14 05:13:00,51.0,-99.9,-100.00,SE,146,7.0,-999.0,-999,0.00,,,0.00,,2013-04-14 10:13:00,
2013-04-14 05:23:00,51.0,-99.9,-100.00,SE,146,7.0,-999.0,-999,0.00,,,0.00,,2013-04-14 10:23:00,
2013-04-14 05:33:00,51.0,-99.9,-100.00,SE,137,8.0,-999.0,-999,0.00,,,0.00,,2013-04-14 10:33:00,
2013-04-14 05:43:00,51.0,-99.9,-100.00,SE,137,8.0,-999.0,-999,0.00,,,0.00,,2013-04-14 10:43:00,
2013-04-14 05:53:00,51.0,-99.9,-100.00,SE,137,8.0,-999.0,-999,0.00,,,0.00,,2013-04-14 10:53:00,
2013-04-14 06:03:00,50.0,-99.9,-100.00,SE,140,7.0,-999.0,-999,0.00,,,0.00,,2013-04-14 11:03:00,
2013-04-14 06:13:00,50.0,-99.9,-100.00,SE,140,7.0,-999.0,-999,0.00,,,0.00,,2013-04-14 11:13:00,
2013-04-14 06:23:00,50.0,-99.9,-100.00,SE,140,7.0,-999.0,-999,0.00,,,0.00,,2013-04-14 11:23:00,
2013-04-14 06:33:00,49.0,-99.9,-100.00,SE,125,7.0,-999.0,-999,0.00,,,0.00,,2013-04-14 11:33:00,
2013-04-14 06:42:00,49.0,-99.9,-100.00,SE,125,7.0,-999.0,-999,0.00,,,0.00,,2013-04-14 11:42:00,
2013-04-14 06:53:00,49.0,-99.9,-100.00,SE,125,7.0,-999.0,-999,0.00,,,0.00,,2013-04-14 11:53:00,
2013-04-14 07:02:00,48.0,-99.9,-100.00,SE,130,6.0,-999.0,-999,0.00,,,0.00,,2013-04-14 12:02:00,
2013-04-14 07:12:00,48.0,-99.9,-100.00,SE,130,6.0,-999.0,-999,0.00,,,0.00,,2013-04-14 12:12:00,
2013-04-14 07:22:00,48.0,-99.9,-100.00,SE,130,6.0,-999.0,-999,0.00,,,0.00,,2013-04-14 12:22:00,
2013-04-14 07:32:00,49.0,-99.9,-100.00,SE,135,8.0,-999.0,-999,0.00,,,0.00,,2013-04-14 12:32:00,
2013-04-14 07:42:00,49.0,-99.9,-100.00,SE,135,8.0,-999.0,-999,0.00,,,0.00,,2013-04-14 12:42:00,
2013-04-14 07:52:00,49.0,-99.9,-100.00,SE,135,8.0,-999.0,-999,0.00,,,0.00,,2013-04-14 12:52:00,
2013-04-14 08:02:00,50.0,-99.9,-100.00,SE,138,9.0,-999.0,-999,0.00,,,0.00,,2013-04-14 13:02:00,
2013-04-14 08:12:00,50.0,-99.9,-100.00,SE,138,9.0,-999.0,-999,0.00,,,0.00,,2013-04-14 13:12:00,
2013-04-14 08:23:00,50.0,-99.9,-100.00,SE,138,9.0,-999.0,-999,0.00,,,0.00,,2013-04-14 13:23:00,
2013-04-14 08:33:00,53.0,-99.9,-100.00,SSE,148,9.0,-999.0,-999,0.00,,,0.00,,2013-04-14 13:33:00,
2013-04-14 08:43:00,53.0,-99.9,-100.00,SSE,148,9.0,-999.0,-999,0.00,,,0.00,,2013-04-14 13:43:00,
2013-04-14 08:53:00,53.0,-99.9,-100.00,SSE,148,9.0,-999.0,-999,0.00,,,0.00,,2013-04-14 13:53:00,
2013-04-14 09:03:00,52.0,-99.9,-100.00,SSE,149,11.0,-999.0,-999,0.00,,,0.00,,2013-04-14 14:03:00,
2013-04-14 09:12:00,52.0,-99.9,-100.00,SSE,149,11.0,-999.0,-999,0.00,,,0.00,,2013-04-14 14:12:00,
2013-04-14 09:23:00,52.0,-99.9,-100.00,SSE,149,11.0,-999.0,-999,0.00,,,0.00,,2013-04-14 14:23:00,
2013-04-14 09:33:00,55.0,-99.9,-100.00,SSE,161,8.0,-999.0,-999,0.00,,,0.00,,2013-04-14 14:33:00,
2013-04-14 09:42:00,55.0,-99.9,-100.00,SSE,161,8.0,-999.0,-999,0.00,,,0.00,,2013-04-14 14:42:00,
2013-04-14 09:53:00,55.0,-99.9,-100.00,SSE,161,8.0,-999.0,-999,0.00,,,0.00,,2013-04-14 14:53:00,
2013-04-14 10:03:00,60.0,-99.9,-100.00,SSE,156,7.0,-999.0,-999,0.00,,,0.00,,2013-04-14 15:03:00,
2013-04-14 10:13:00,60.0,-99.9,-100.00,SSE,156,7.0,-999.0,-999,0.00,,,0.00,,2013-04-14 15:13:00,
2013-04-14 10:23:00,60.0,-99.9,-100.00,SSE,156,7.0,-999.0,-999,0.00,,,0.00,,2013-04-14 15:23:00,
2013-04-14 10:34:00,65.0,-99.9,-100.00,South,172,8.0,-999.0,-999,0.00,,,0.00,,2013-04-14 15:34:00,
2013-04-14 10:44:00,65.0,-99.9,-100.00,South,172,8.0,-999.0,-999,0.00,,,0.00,,2013-04-14 15:44:00,
2013-04-14 10:53:00,65.0,-99.9,-100.00,South,172,8.0,-999.0,-999,0.00,,,0.00,,2013-04-14 15:53:00,
2013-04-14 11:05:00,67.0,-99.9,-100.00,SSE,164,9.0,-999.0,-999,0.00,,,0.00,,2013-04-14 16:05:00,
2013-04-14 11:13:00,67.0,-99.9,-100.00,SSE,164,9.0,-999.0,-999,0.00,,,0.00,,2013-04-14 16:13:00,
2013-04-14 11:23:00,67.0,-99.9,-100.00,SSE,164,9.0,-999.0,-999,0.00,,,0.00,,2013-04-14 16:23:00,
2013-04-14 11:33:00,67.0,-99.9,-100.00,SSE,150,8.0,-999.0,-999,0.00,,,0.00,,2013-04-14 16:33:00,
2013-04-14 11:44:00,67.0,-99.9,-100.00,SSE,150,8.0,-999.0,-999,0.00,,,0.00,,2013-04-14 16:44:00,
2013-04-14 11:53:00,67.0,-99.9,-100.00,SSE,150,8.0,-999.0,-999,0.00,,,0.00,,2013-04-14 16:53:00,
2013-04-14 12:02:00,70.0,-99.9,-100.00,South,175,8.0,-999.0,-999,0.00,,,0.00,,2013-04-14 17:02:00,
2013-04-14 12:13:00,70.0,-99.9,-100.00,South,175,8.0,-999.0,-999,0.00,,,0.00,,2013-04-14 17:13:00,
2013-04-14 12:23:00,70.0,-99.9,-100.00,South,175,8.0,-999.0,-999,0.00,,,0.00,,2013-04-14 17:23:00,
2013-04-14 12:33:00,72.0,-99.9,-100.00,South,179,11.0,-999.0,-999,0.00,,,0.00,,2013-04-14 17:33:00,
2013-04-14 12:43:00,72.0,-99.9,-100.00,South,179,11.0,-999.0,-999,0.00,,,0.00,,2013-04-14 17:43:00,
2013-04-14 12:53:00,72.0,-99.9,-100.00,South,179,11.0,-999.0,-999,0.00,,,0.00,,2013-04-14 17:53:00,
2013-04-14 13:03:00,73.0,-99.9,-100.00,SSE,165,10.0,-999.0,-999,0.00,,,0.00,,2013-04-14 18:03:00,
2013-04-14 13:13:00,73.0,-99.9,-100.00,SSE,165,10.0,-999.0,-999,0.00,,,0.00,,2013-04-14 18:13:00,
2013-04-14 13:22:00,73.0,-99.9,-100.00,SSE,165,10.0,-999.0,-999,0.00,,,0.00,,2013-04-14 18:22:00,
2013-04-14 13:33:00,75.0,-99.9,-100.00,South,183,11.0,-999.0,-999,0.00,,,0.00,,2013-04-14 18:33:00,
2013-04-14 13:43:00,75.0,-99.9,-100.00,South,183,11.0,-999.0,-999,0.00,,,0.00,,2013-04-14 18:43:00,
2013-04-14 13:54:00,75.0,-99.9,-100.00,South,183,11.0,-999.0,-999,0.00,,,0.00,,2013-04-14 18:54:00,
2013-04-14 14:04:00,76.0,-99.9,-100.00,SSW,196,15.0,-999.0,-999,0.00,,,0.00,,2013-04-14 19:04:00,
2013-04-14 14:12:00,76.0,-99.9,-100.00,SSW,196,15.0,-999.0,-999,0.00,,,0.00,,2013-04-14 19:12:00,
2013-04-14 14:23:00,76.0,-99.9,-100.00,SSW,196,15.0,-999.0,-999,0.00,,,0.00,,2013-04-14 19:23:00,
2013-04-14 14:33:00,78.0,-99.9,-100.00,SSW,197,15.0,-999.0,-999,0.00,,,0.00,,2013-04-14 19:33:00,
2013-04-14 14:43:00,78.0,-99.9,-100.00,SSW,197,15.0,-999.0,-999,0.00,,,0.00,,2013-04-14 19:43:00,
2013-04-14 14:53:00,78.0,-99.9,-100.00,SSW,197,15.0,-999.0,-999,0.00,,,0.00,,2013-04-14 19:53:00,
2013-04-14 15:03:00,78.0,-99.9,-100.00,South,183,14.0,-999.0,-999,0.00,,,0.00,,2013-04-14 20:03:00,
2013-04-14 15:13:00,78.0,-99.9,-100.00,South,183,14.0,-999.0,-999,0.00,,,0.00,,2013-04-14 20:13:00,
2013-04-14 15:22:00,78.0,-99.9,-100.00,South,183,14.0,-999.0,-999,0.00,,,0.00,,2013-04-14 20:22:00,
2013-04-14 15:33:00,80.0,-99.9,-100.00,SSW,198,11.0,-999.0,-999,0.00,,,0.00,,2013-04-14 20:33:00,
2013-04-14 15:43:00,80.0,-99.9,-100.00,SSW,198,11.0,-999.0,-999,0.00,,,0.00,,2013-04-14 20:43:00,
2013-04-14 15:53:00,80.0,-99.9,-100.00,SSW,198,11.0,-999.0,-999,0.00,,,0.00,,2013-04-14 20:53:00,
2013-04-14 16:02:00,79.0,-99.9,-100.00,South,183,11.0,-999.0,-999,0.00,,,0.00,,2013-04-14 21:02:00,
2013-04-14 16:13:00,79.0,-99.9,-100.00,South,183,11.0,-999.0,-999,0.00,,,0.00,,2013-04-14 21:13:00,
2013-04-14 16:23:00,79.0,-99.9,-100.00,South,183,11.0,-999.0,-999,0.00,,,0.00,,2013-04-14 21:23:00,
2013-04-14 16:34:00,78.0,-99.9,-100.00,South,176,10.0,-999.0,-999,0.00,,,0.00,,2013-04-14 21:34:00,
2013-04-14 16:43:00,78.0,-99.9,-100.00,South,176,10.0,-999.0,-999,0.00,,,0.00,,2013-04-14 21:43:00,
2013-04-14 16:54:00,78.0,-99.9,-100.00,South,176,10.0,-999.0,-999,0.00,,,0.00,,2013-04-14 21:54:00,
2013-04-14 17:03:00,79.0,-99.9,-100.00,SSE,166,11.0,-999.0,-999,0.00,,,0.00,,2013-04-14 22:03:00,
2013-04-14 17:13:00,79.0,-99.9,-100.00,SSE,166,11.0,-999.0,-999,0.00,,,0.00,,2013-04-14 22:13:00,
2013-04-14 17:23:00,79.0,-99.9,-100.00,SSE,166,11.0,-999.0,-999,0.00,,,0.00,,2013-04-14 22:23:00,
2013-04-14 17:33:00,80.0,-99.9,-100.00,South,181,11.0,-999.0,-999,0.00,,,0.00,,2013-04-14 22:33:00,
2013-04-14 17:44:00,80.0,-99.9,-100.00,South,181,11.0,-999.0,-999,0.00,,,0.00,,2013-04-14 22:44:00,
2013-04-14 17:53:00,80.0,-99.9,-100.00,South,181,11.0,-999.0,-999,0.00,,,0.00,,2013-04-14 22:53:00,
2013-04-14 18:00:00,78.0,-99.9,-100.00,South,175,8.0,-999.0,-999,0.00,,,0.00,,2013-04-14 23:00:00,
2013-04-14 18:02:00,79.0,-99.9,-100.00,South,181,9.0,-999.0,-999,0.00,,,0.00,,2013-04-14 23:02:00,
2013-04-14 18:13:00,79.0,-99.9,-100.00,South,181,9.0,-999.0,-999,0.00,,,0.00,,2013-04-14 23:13:00,
2013-04-14 18:23:00,79.0,-99.9,-100.00,South,181,9.0,-999.0,-999,0.00,,,0.00,,2013-04-14 23:23:00,
2013-04-14 18:33:00,78.0,-99.9,-100.00,South,175,8.0,-999.0,-999,0.00,,,0.00,,2013-04-14 23:33:00,
2013-04-14 18:43:00,78.0,-99.9,-100.00,South,175,8.0,-999.0,-999,0.00,,,0.00,,2013-04-14 23:43:00,
2013-04-14 18:53:00,78.0,-99.9,-100.00,South,175,8.0,-999.0,-999,0.00,,,0.00,,2013-04-14 23:53:00,
2013-04-14 19:34:00,74.0,-99.9,-100.00,SSE,166,3.0,-999.0,-999,0.00,,,0.00,,2013-04-15 00:34:00,
2013-04-14 19:43:00,74.0,-99.9,-100.00,SSE,166,3.0,-999.0,-999,0.00,,,0.00,,2013-04-15 00:43:00,
2013-04-14 19:53:00,74.0,-99.9,-100.00,SSE,166,3.0,-999.0,-999,0.00,,,0.00,,2013-04-15 00:53:00,
2013-04-14 20:00:00,70.0,-99.9,-100.00,SSE,158,8.0,-999.0,-999,0.00,,,0.00,,2013-04-15 01:00:00,
2013-04-14 20:03:00,71.0,-99.9,-100.00,SSE,166,3.0,-999.0,-999,0.00,,,0.00,,2013-04-15 01:03:00,
2013-04-14 20:13:00,71.0,-99.9,-100.00,SSE,166,3.0,-999.0,-999,0.00,,,0.00,,2013-04-15 01:13:00,
2013-04-14 20:23:00,71.0,-99.9,-100.00,SSE,166,3.0,-999.0,-999,0.00,,,0.00,,2013-04-15 01:23:00,
2013-04-14 20:33:00,70.0,-99.9,-100.00,SSE,158,8.0,-999.0,-999,0.00,,,0.00,,2013-04-15 01:33:00,
2013-04-14 20:43:00,70.0,-99.9,-100.00,SSE,158,8.0,-999.0,-999,0.00,,,0.00,,2013-04-15 01:43:00,
2013-04-14 20:53:00,70.0,-99.9,-100.00,SSE,158,8.0,-999.0,-999,0.00,,,0.00,,2013-04-15 01:53:00,
2013-04-14 21:33:00,69.0,-99.9,-100.00,SSE,158,7.0,-999.0,-999,0.00,,,0.00,,2013-04-15 02:33:00,
2013-04-14 21:42:00,69.0,-99.9,-100.00,SSE,158,7.0,-999.0,-999,0.00,,,0.00,,2013-04-15 02:42:00,
2013-04-14 21:53:00,69.0,-99.9,-100.00,SSE,158,7.0,-999.0,-999,0.00,,,0.00,,2013-04-15 02:53:00,
2013-04-14 22:03:00,71.0,-99.9,-100.00,South,173,11.0,-999.0,-999,0.00,,,0.00,,2013-04-15 03:03:00,
2013-04-14 22:12:00,71.0,-99.9,-100.00,South,173,11.0,-999.0,-999,0.00,,,0.00,,2013-04-15 03:12:00,
2013-04-14 22:22:00,71.0,-99.9,-100.00,South,173,11.0,-999.0,-999,0.00,,,0.00,,2013-04-15 03:22:00,
2013-04-14 22:33:00,69.0,-99.9,-100.00,South,171,9.0,-999.0,-999,0.00,,,0.00,,2013-04-15 03:33:00,
2013-04-14 22:43:00,69.0,-99.9,-100.00,South,171,9.0,-999.0,-999,0.00,,,0.00,,2013-04-15 03:43:00,
2013-04-14 22:55:00,69.0,-99.9,-100.00,South,171,9.0,-999.0,-999,0.00,,,0.00,,2013-04-15 03:55:00,
2013-04-14 23:03:00,69.0,-99.9,-100.00,South,178,11.0,-999.0,-999,0.00,,,0.00,,2013-04-15 04:03:00,
2013-04-14 23:13:00,69.0,-99.9,-100.00,South,178,11.0,-999.0,-999,0.00,,,0.00,,2013-04-15 04:13:00,
2013-04-14 23:23:00,69.0,-99.9,-100.00,South,178,11.0,-999.0,-999,0.00,,,0.00,,2013-04-15 04:23:00,
2013-04-14 23:34:00,56.0,-99.9,-100.00,WSW,255,9.0,-999.0,-999,0.46,,,0.46,,2013-04-15 04:34:00,
2013-04-14 23:43:00,56.0,-99.9,-100.00,WSW,255,9.0,-999.0,-999,0.46,,,0.46,,2013-04-15 04:43:00,
2013-04-14 23:53:00,56.0,-99.9,-100.00,WSW,255,9.0,-999.0,-999,0.46,,,0.46,,2013-04-15 04:53:00,